Back to catalog

USA 374

AliveMilitaryVLEO
NORAD 59834·PAYLOAD·🇺🇸 United States

Launched May 22, 2024 from Vandenberg Space Force Base

Loading…

Next Passes (next 24 hours)

TLE

StaleSource: Mike McCants

Epoch: Aug 19, 2026, 21:44 UTC

1 59834U 24096W   26231.90603145 0.00000000  00000-0  00000-0 0    05
2 59834  70.0182 151.9834 0003000 210.9151 149.0849 14.96714200    01

Track USA 374 in real time with AllMySat

Download on the App Store